Change the Weather History Date:

Thursday, September 26, 2013

  Actual Average Record
Temperature  
Mean Temperature 63 °F 56 °F  
Max Temperature 77 °F 67 °F 86 °F (1986)
Min Temperature 48 °F 44 °F 28 °F (1965)
Degree Days  
Heating Degree Days 2 10  
Month to date heating degree days 117 148  
Since 1 July heating degree days 155 187  
Cooling Degree Days 0 1  
Month to date cooling degree days 82 47  
Year to date cooling degree days 648 574  
Growing Degree Days 12 (Base 50)    
Moisture  
Dew Point 52 °F    
Average Humidity 74    
Maximum Humidity 100    
Minimum Humidity 47    
Precipitation  
Precipitation 0.00 in 0.12 in 3.00 in (1930)
Month to date precipitation 1.50 3.24  
Year to date precipitation 29.14 25.36  
Snow  
Snow 0.00 in 0.00 in T in (1926)
Month to date snowfall 0.0 0.0  
Since 1 July snowfall 0.0 0.0  
Since 1 September snowfall 0.0 0.0  
Snow Depth 0.00 in    
Sea Level Pressure  
Sea Level Pressure 29.98 in    
Wind  
Wind Speed 8 mph (SE)    
Max Wind Speed 14 mph    
Max Gust Speed 20 mph    
Visibility 9 miles    
Events      
T = Trace of Precipitation, MM = Missing Value Source: NWS Daily Summary

Daily Weather History Graph

Daily Weather History Graph

Search for Another Location

Airport or City:

Trip Planner

Search our weather history database for the weather conditions in past years. The results will help you decide how hot, cold, wet, or windy it might be!

Date:

Astronomy

Sep. 26, 2013 Rise Set
Actual Time 6:58 AM CDT 6:55 PM CDT
Civil Twilight 6:28 AM CDT 7:24 PM CDT
Nautical Twilight 5:54 AM CDT 7:58 PM CDT
Astronomical Twilight 5:19 AM CDT 8:33 PM CDT
Moon 11:41 PM CDT (9/26) 2:03 PM CDT (9/26)
Length of Visible Light 12h 55m
Length of Day
11h 57m
Waning Gibbous, 54% of the Moon is Illuminated
Sep 26
Waning Gibbous
Sep 26
Last Quarter
Oct 4
New
Oct 11
First Quarter
Oct 18
Full

Hourly Weather History & Observations

Time (CDT) Temp. Dew Point Humidity Pressure Visibility Wind Dir Wind Speed Gust Speed Precip Events Conditions
12:56 AM 54.0 °F 48.9 °F 83% 29.98 in 10.0 mi SE 4.6 mph - N/A   Clear
1:56 AM 51.1 °F 48.0 °F 89% 29.99 in 10.0 mi Calm Calm - N/A   Clear
2:56 AM 52.0 °F 48.9 °F 89% 29.99 in 10.0 mi Variable 3.5 mph - N/A   Clear
3:56 AM 51.1 °F 48.9 °F 92% 29.99 in 8.0 mi ENE 6.9 mph - N/A   Clear
4:56 AM 48.9 °F 48.0 °F 97% 29.99 in 7.0 mi Calm Calm - N/A   Clear
5:56 AM 48.9 °F 48.0 °F 97% 29.99 in 5.0 mi East 6.9 mph - N/A   Clear
6:56 AM 50.0 °F 48.0 °F 93% 30.00 in 6.0 mi East 5.8 mph - N/A   Clear
7:56 AM 51.1 °F 48.9 °F 92% 30.01 in 6.0 mi ESE 4.6 mph - N/A   Clear
8:56 AM 54.0 °F 48.9 °F 83% 30.02 in 8.0 mi ESE 5.8 mph - N/A   Clear
9:56 AM 59.0 °F 51.1 °F 75% 30.02 in 10.0 mi SE 6.9 mph - N/A   Clear
10:56 AM 64.0 °F 53.1 °F 67% 30.01 in 10.0 mi ESE 8.1 mph - N/A   Clear
11:56 AM 66.9 °F 53.1 °F 61% 30.01 in 10.0 mi SE 10.4 mph - N/A   Clear
12:56 PM 70.0 °F 53.1 °F 55% 29.99 in 10.0 mi SE 11.5 mph - N/A   Clear
1:56 PM 73.9 °F 54.0 °F 50% 29.97 in 10.0 mi SSE 13.8 mph - N/A   Clear
2:56 PM 75.0 °F 55.0 °F 50% 29.96 in 10.0 mi SE 11.5 mph 19.6 mph N/A   Clear
3:56 PM 77.0 °F 55.9 °F 48% 29.95 in 10.0 mi SE 12.7 mph - N/A   Clear
4:56 PM 77.0 °F 55.9 °F 48% 29.94 in 10.0 mi SE 9.2 mph - N/A   Clear
5:56 PM 75.0 °F 57.0 °F 53% 29.94 in 10.0 mi SE 13.8 mph - N/A   Clear
6:56 PM 71.1 °F 57.0 °F 61% 29.95 in 10.0 mi SE 8.1 mph - N/A   Clear
7:56 PM 69.1 °F 55.0 °F 61% 29.96 in 10.0 mi ESE 9.2 mph - N/A   Clear
8:56 PM 68.0 °F 55.0 °F 63% 29.95 in 10.0 mi SE 12.7 mph - N/A   Clear
9:56 PM 66.0 °F 54.0 °F 65% 29.96 in 10.0 mi SE 10.4 mph 17.3 mph N/A   Clear
10:56 PM 66.0 °F 53.1 °F 63% 29.97 in 10.0 mi SE 6.9 mph - N/A   Clear
11:56 PM 64.9 °F 53.1 °F 65% 29.99 in 10.0 mi Calm Calm - N/A   Clear